Wahpeton, MN

7:19 AM CST on December 08, 2019 (GMT -0600)
Stern

Weather History for KBWP - October, 2019

Change the Weather History Date:

Thursday, October 17, 2019

  Actual Average (KFFM) Record (KFFM)
Temperature  
Mean Temperature 46 °F -  
Max Temperature 59 °F 55 °F 76 °F (1953)
Min Temperature 33 °F 33 °F 5 °F (1998)
Degree Days  
Heating Degree Days 19    
Moisture  
Dew Point 36 °F    
Average Humidity 73    
Maximum Humidity 93    
Minimum Humidity 51    
Precipitation  
Precipitation 0.00 in - - ()
Sea Level Pressure  
Sea Level Pressure 29.84 in    
Wind  
Wind Speed 10 mph ()    
Max Wind Speed 20 mph    
Max Gust Speed 26 mph    
Visibility 10.0 miles    
Events      
Averages and records for this station are not official NWS values.
T = Trace of Precipitation, MM = Missing Value Source: Averaged Metar Reports

Daily Weather History Graph

Daily Weather History Graph

Search for Another Location

Airport or City:

Astronomy

Oct. 17, 2019 Rise Set
Actual Time 7:46 AM CDT 6:36 PM CDT
Civil Twilight 7:15 AM CDT 7:07 PM CDT
Nautical Twilight 6:40 AM CDT 7:41 PM CDT
Astronomical Twilight 6:06 AM CDT 8:16 PM CDT
Moon 8:58 PM CDT (10/17) 11:29 AM CDT (10/17)
Length of Visible Light 11h 51m
Length of Day
10h 50m
Waning Gibbous, 86% of the Moon is Illuminated
Oct 17
Waning Gibbous
Oct 21
Last Quarter
Oct 27
New
Nov 4
First Quarter
Nov 12
Full

Hourly Weather History & Observations

Time (CDT) Temp. Windchill Dew Point Humidity Pressure Visibility Wind Dir Wind Speed Gust Speed Precip Events Conditions
12:15 AM 35.6 °F 28.6 °F 32.0 °F 87% 30.00 in 10.0 mi SE 9.2 mph - N/A   Unknown
12:35 AM 33.8 °F 27.0 °F 32.0 °F 93% 30.00 in 10.0 mi SE 8.1 mph - N/A   Unknown
12:55 AM 33.8 °F 27.0 °F 32.0 °F 93% 29.99 in 10.0 mi SE 8.1 mph - N/A   Unknown
1:15 AM 33.8 °F 28.6 °F 32.0 °F 93% 29.98 in 10.0 mi SE 5.8 mph - N/A   Unknown
1:35 AM 33.8 °F 27.7 °F 32.0 °F 93% 29.98 in 10.0 mi SE 6.9 mph - N/A   Unknown
2:15 AM 33.8 °F 28.6 °F 32.0 °F 93% 29.97 in 10.0 mi SE 5.8 mph - N/A   Unknown
2:35 AM 33.8 °F 27.0 °F 32.0 °F 93% 29.96 in 10.0 mi SE 8.1 mph - N/A   Unknown
2:55 AM 33.8 °F 27.0 °F 32.0 °F 93% 29.96 in 10.0 mi SE 8.1 mph - N/A   Unknown
3:15 AM 33.8 °F 27.0 °F 32.0 °F 93% 29.96 in 10.0 mi ESE 8.1 mph - N/A   Unknown
3:55 AM 33.8 °F 27.7 °F 32.0 °F 93% 29.96 in 10.0 mi SE 6.9 mph - N/A   Unknown
4:15 AM 33.8 °F 27.7 °F 32.0 °F 93% 29.95 in 10.0 mi ESE 6.9 mph - N/A   Unknown
4:35 AM 33.8 °F 27.7 °F 32.0 °F 93% 29.95 in 10.0 mi ESE 6.9 mph - N/A   Unknown
4:55 AM 33.8 °F 27.7 °F 32.0 °F 93% 29.95 in 10.0 mi ESE 6.9 mph - N/A   Unknown
5:15 AM 33.8 °F 27.7 °F 32.0 °F 93% 29.94 in 10.0 mi ESE 6.9 mph - N/A   Unknown
5:35 AM 33.8 °F 27.0 °F 32.0 °F 93% 29.94 in 10.0 mi SE 8.1 mph - N/A   Unknown
5:55 AM 33.8 °F 26.4 °F 32.0 °F 93% 29.94 in 10.0 mi SE 9.2 mph - N/A   Unknown
6:15 AM 33.8 °F 26.4 °F 32.0 °F 93% 29.94 in 10.0 mi SE 9.2 mph - N/A   Unknown
6:35 AM 33.8 °F 27.0 °F 32.0 °F 93% 29.93 in 10.0 mi SE 8.1 mph - N/A   Unknown
6:55 AM 33.8 °F 27.0 °F 32.0 °F 93% 29.93 in 10.0 mi ESE 8.1 mph - N/A   Unknown
7:15 AM 33.8 °F 27.0 °F 32.0 °F 93% 29.93 in 10.0 mi SE 8.1 mph - N/A   Unknown
7:35 AM 33.8 °F 27.0 °F 32.0 °F 93% 29.93 in 10.0 mi SE 8.1 mph - N/A   Unknown
7:55 AM 33.8 °F 28.6 °F 32.0 °F 93% 29.92 in 10.0 mi SE 5.8 mph - N/A   Unknown
8:15 AM 33.8 °F 27.7 °F 32.0 °F 93% 29.93 in 10.0 mi SSE 6.9 mph - N/A   Unknown
8:35 AM 33.8 °F 27.7 °F 32.0 °F 93% 29.92 in 10.0 mi SE 6.9 mph - N/A   Unknown
8:55 AM 33.8 °F 28.6 °F 32.0 °F 93% 29.92 in 10.0 mi SE 5.8 mph - N/A   Unknown
9:15 AM 35.6 °F 29.2 °F 33.8 °F 93% 29.93 in 10.0 mi SSE 8.1 mph - N/A   Unknown
9:35 AM 37.4 °F 30.3 °F 33.8 °F 87% 29.92 in 10.0 mi SE 10.4 mph - N/A   Unknown
10:35 AM 42.8 °F 36.2 °F 35.6 °F 76% 29.91 in 10.0 mi SE 12.7 mph - N/A   Unknown
10:55 AM 44.6 °F 38.8 °F 35.6 °F 71% 29.91 in 10.0 mi SE 11.5 mph 17.3 mph N/A   Unknown
11:15 AM 46.4 °F 40.1 °F 37.4 °F 71% 29.91 in 10.0 mi SE 15.0 mph - N/A   Unknown
11:35 AM 46.4 °F 40.4 °F 37.4 °F 71% 29.90 in 10.0 mi SE 13.8 mph 21.9 mph N/A   Unknown
11:55 AM 50.0 °F - 37.4 °F 62% 29.89 in 10.0 mi SE 15.0 mph 20.7 mph N/A   Unknown
12:15 PM 50.0 °F - 37.4 °F 62% 29.88 in 10.0 mi SE 15.0 mph - N/A   Unknown
12:35 PM 51.8 °F - 39.2 °F 62% 29.87 in 10.0 mi SE 16.1 mph 23.0 mph N/A   Unknown
12:55 PM 53.6 °F - 37.4 °F 54% 29.85 in 10.0 mi SE 17.3 mph - N/A   Unknown
1:35 PM 55.4 °F - 39.2 °F 54% 29.84 in 10.0 mi SSE 18.4 mph 21.9 mph N/A   Unknown
1:55 PM 55.4 °F - 39.2 °F 54% 29.83 in 10.0 mi SE 16.1 mph 24.2 mph N/A   Unknown
2:15 PM 55.4 °F - 41.0 °F 58% 29.82 in 10.0 mi SE 16.1 mph - N/A   Unknown
2:35 PM 57.2 °F - 39.2 °F 51% 29.81 in 10.0 mi SE 16.1 mph 20.7 mph N/A   Unknown
2:55 PM 57.2 °F - 39.2 °F 51% 29.79 in 10.0 mi SE 18.4 mph 24.2 mph N/A   Unknown
3:15 PM 59.0 °F - 41.0 °F 51% 29.79 in 10.0 mi SE 17.3 mph - N/A   Unknown
3:35 PM 59.0 °F - 41.0 °F 51% 29.78 in 10.0 mi SE 15.0 mph 21.9 mph N/A   Unknown
3:55 PM 59.0 °F - 41.0 °F 51% 29.77 in 10.0 mi SE 13.8 mph - N/A   Unknown
4:15 PM 59.0 °F - 41.0 °F 51% 29.76 in 10.0 mi SE 19.6 mph 24.2 mph N/A   Unknown
4:35 PM 59.0 °F - 41.0 °F 51% 29.76 in 10.0 mi SE 18.4 mph 23.0 mph N/A   Unknown
4:55 PM 59.0 °F - 41.0 °F 51% 29.76 in 10.0 mi SSE 16.1 mph 26.5 mph N/A   Unknown
5:15 PM 59.0 °F - 41.0 °F 51% 29.76 in 10.0 mi SSE 15.0 mph 23.0 mph N/A   Unknown
5:35 PM 57.2 °F - 39.2 °F 51% 29.76 in 10.0 mi SSE 16.1 mph - N/A   Unknown
5:55 PM 55.4 °F - 39.2 °F 54% 29.75 in 10.0 mi SE 12.7 mph 21.9 mph N/A   Unknown
6:15 PM 53.6 °F - 41.0 °F 62% 29.75 in 10.0 mi SE 11.5 mph - N/A   Unknown
6:35 PM 53.6 °F - 39.2 °F 58% 29.74 in 10.0 mi SE 13.8 mph 19.6 mph N/A   Unknown
6:55 PM 53.6 °F - 37.4 °F 54% 29.72 in 10.0 mi ESE 15.0 mph 21.9 mph N/A   Unknown
7:15 PM 51.8 °F - 37.4 °F 58% 29.72 in 10.0 mi ESE 11.5 mph - N/A   Unknown
7:35 PM 51.8 °F - 37.4 °F 58% 29.73 in 10.0 mi ESE 12.7 mph - N/A   Unknown
7:55 PM 51.8 °F - 37.4 °F 58% 29.72 in 10.0 mi ESE 16.1 mph - N/A   Unknown
8:15 PM 50.0 °F - 37.4 °F 62% 29.71 in 10.0 mi ESE 15.0 mph 23.0 mph N/A   Unknown
8:35 PM 50.0 °F - 37.4 °F 62% 29.71 in 10.0 mi SE 13.8 mph 18.4 mph N/A   Unknown
8:55 PM 50.0 °F - 37.4 °F 62% 29.70 in 10.0 mi SE 16.1 mph 21.9 mph N/A   Unknown
9:15 PM 50.0 °F - 37.4 °F 62% 29.70 in 10.0 mi SE 17.3 mph 23.0 mph N/A   Unknown
9:35 PM 50.0 °F - 37.4 °F 62% 29.71 in 10.0 mi SE 16.1 mph 23.0 mph N/A   Unknown
9:55 PM 50.0 °F - 37.4 °F 62% 29.70 in 10.0 mi SE 15.0 mph 23.0 mph N/A   Unknown
10:15 PM 50.0 °F - 37.4 °F 62% 29.69 in 10.0 mi SE 16.1 mph 25.3 mph N/A   Unknown
10:35 PM 50.0 °F - 37.4 °F 62% 29.69 in 10.0 mi SE 16.1 mph 21.9 mph N/A   Unknown
10:55 PM 48.2 °F - 37.4 °F 66% 29.68 in 10.0 mi SE 15.0 mph 25.3 mph N/A   Unknown
11:15 PM 50.0 °F - 37.4 °F 62% 29.67 in 10.0 mi SE 15.0 mph 23.0 mph N/A   Unknown
11:35 PM 48.2 °F - 37.4 °F 66% 29.67 in 10.0 mi SE 15.0 mph 19.6 mph N/A   Unknown
11:55 PM 50.0 °F - 37.4 °F 62% 29.66 in 10.0 mi SE 16.1 mph 21.9 mph N/A   Unknown